Location: Ames
(42.0350°N, 93.6200°W)
Time: 22:37:56
(UTC-05:00)

ISS - All Passes

Search period start: 24 July 2014 00:00
Search period end: 03 August 2014 00:00
Orbit: 411 x 419 km, 51.6° (Epoch: 24 July)

Date Brightness Start Highest point End Pass type
(mag) Time Alt. Az. Time Alt. Az. Time Alt. Az.
24 Jul - 01:55:06 10° SSW 01:58:19 45° SE 02:01:32 10° ENE visible
24 Jul - 03:32:07 10° W 03:35:08 30° NNW 03:38:09 10° NE visible
24 Jul - 05:10:28 10° NW 05:12:38 16° N 05:14:49 10° NE visible
24 Jul - 06:47:30 10° NW 06:50:15 23° NNE 06:53:00 10° ENE daylight
24 Jul - 08:23:55 10° WNW 08:27:18 82° SW 08:30:39 10° SE daylight
25 Jul - 01:06:50 10° SSW 01:09:39 26° SE 01:12:30 10° ENE visible
25 Jul - 02:43:02 10° W 02:46:15 42° NNW 02:49:29 10° NE visible
25 Jul - 04:21:18 10° NW 04:23:37 17° N 04:25:56 10° NE visible
25 Jul - 05:58:47 10° NW 06:01:17 19° NNE 06:03:46 10° ENE daylight
25 Jul - 07:35:11 10° NW 07:38:31 60° NNE 07:41:51 10° ESE daylight
25 Jul - 09:12:39 10° W 09:14:56 17° SW 09:17:13 10° S daylight
26 Jul - 00:19:05 10° SSE 00:21:05 15° SE 00:23:06 10° E night (unlit)
26 Jul - 01:54:07 10° WSW 01:57:27 67° NNW 02:00:48 10° NE visible
26 Jul - 03:32:07 10° WNW 03:34:39 20° NNW 03:37:12 10° NE visible
26 Jul - 05:10:02 10° NW 05:12:18 17° N 05:14:35 10° NE visible
26 Jul - 06:46:31 10° NW 06:49:43 39° NNE 06:52:54 10° E daylight
26 Jul - 08:23:24 10° WNW 08:26:22 29° SW 08:29:19 10° SSE daylight
27 Jul - 01:05:25 10° SW 01:08:45 72° SE 01:12:06 10° ENE visible
27 Jul - 02:42:56 10° WNW 02:45:45 24° NNW 02:48:33 10° NE visible
27 Jul - 04:21:10 10° NW 04:23:20 16° N 04:25:31 10° NE visible
27 Jul - 05:57:55 10° NW 06:00:53 28° NNE 06:03:51 10° E daylight
27 Jul - 07:34:28 10° WNW 07:37:46 51° SW 07:41:02 10° SE daylight
28 Jul - 00:16:58 10° SSW 00:20:07 40° SE 00:23:18 10° ENE night (unlit)
28 Jul - 01:53:51 10° W 01:56:54 31° NNW 01:59:58 10° NE visible
28 Jul - 03:32:12 10° NW 03:34:24 16° N 03:36:36 10° NE visible
28 Jul - 05:09:19 10° NW 05:12:02 22° NNE 05:14:44 10° ENE visible
28 Jul - 06:45:44 10° NW 06:49:07 90° SW 06:52:29 10° SE daylight
28 Jul - 08:24:25 10° WSW 08:25:21 11° SW 08:26:17 10° SW daylight
28 Jul - 23:28:52 10° S 23:31:35 23° SE 23:34:19 10° E night (unlit)
29 Jul - 01:04:54 10° WSW 01:08:09 46° NNW 01:11:24 10° NE visible
29 Jul - 02:43:09 10° NW 02:45:30 17° N 02:47:51 10° NE visible
29 Jul - 04:20:43 10° NW 04:23:10 18° NNE 04:25:37 10° ENE visible
29 Jul - 05:57:07 10° NW 06:00:27 55° NNE 06:03:45 10° ESE daylight
29 Jul - 07:34:27 10° W 07:36:55 19° SW 07:39:22 10° S daylight
29 Jul - 22:41:23 10° SSE 22:43:09 14° SE 22:44:54 10° E night (unlit)
30 Jul - 00:16:08 10° WSW 00:19:28 74° NNW 00:22:50 10° NE visible
30 Jul - 01:54:04 10° WNW 01:56:39 20° NNW 01:59:14 10° NE visible
30 Jul - 03:32:03 10° NW 03:34:18 17° N 03:36:33 10° NE visible
30 Jul - 05:08:35 10° NW 05:11:45 36° NNE 05:14:54 10° E visible
30 Jul - 06:45:23 10° WNW 06:48:26 32° SW 06:51:29 10° SSE daylight
30 Jul - 23:27:34 10° SW 23:30:53 65° SE 23:34:13 10° ENE night (unlit)
31 Jul - 01:05:00 10° WNW 01:07:51 25° NNW 01:10:43 10° NE visible
31 Jul - 02:43:17 10° NW 02:45:27 16° N 02:47:37 10° NE visible
31 Jul - 04:20:05 10° NW 04:23:01 27° NNE 04:25:56 10° E visible
31 Jul - 05:56:37 10° WNW 05:59:56 57° SW 06:03:14 10° SE daylight
31 Jul - 22:39:17 10° SSW 22:42:23 36° SE 22:45:30 10° ENE night (unlit)
01 Aug - 00:16:03 10° W 00:19:08 33° NNW 00:22:14 10° NE visible
01 Aug - 01:54:24 10° NW 01:56:37 16° N 01:58:50 10° NE visible
01 Aug - 03:31:36 10° NW 03:34:16 21° NNE 03:36:55 10° ENE visible
01 Aug - 05:08:00 10° NW 05:11:23 83° NE 05:14:46 10° ESE visible
01 Aug - 06:46:18 10° WSW 06:47:40 12° SW 06:49:03 10° SSW daylight
01 Aug - 21:51:22 10° S 21:53:58 21° SE 21:56:35 10° E visible
01 Aug - 23:27:14 10° WSW 23:30:30 49° NNW 23:33:46 10° NE night (unlit)
02 Aug - 01:05:27 10° NW 01:07:49 18° N 01:10:13 10° NE visible
02 Aug - 02:43:05 10° NW 02:45:30 18° N 02:47:55 10° NE visible
02 Aug - 04:19:31 10° NW 04:22:49 51° NNE 04:26:07 10° ESE visible
02 Aug - 05:56:44 10° W 05:59:20 21° SW 06:01:55 10° S daylight
02 Aug - 21:04:10 10° SSE 21:05:38 12° SE 21:07:08 10° ESE visible
02 Aug - 22:38:36 10° WSW 22:41:56 80° NW 22:45:18 10° NE visible
